Regional Weather Roundup
Issued by NWS

Home | Current Version | Previous Version | Graphics & Text | Print | Product List | Glossary Off
Versions: 1 2 3 4 5 6 7 8 9 10 11 12 13 14 15 16 17 18 19 20 21 22 23 24 25 26 27 28 29 30 31 32 33 34 35 36 37 38 39 40 41 42 43 44 45 46 47 48 49 50

000
ASUS43 KDTX 251501
RWRMI
MICHIGAN HOURLY REGIONAL WEATHER ROUNDUP
NATIONAL WEATHER SERVICE DETROIT/PONTIAC MI
1100 AM EDT SUN SEP 25 2016

NOTE: "FAIR" INDICATES FEW OR NO CLOUDS BELOW 12,000 FEET WITH NO
SIGNIFICANT WEATHER AND/OR OBSTRUCTION TO VISIBILITY.

MIZ047>049-052>055-059>063-066>070-074>076-081>083-251600-
SOUTHEAST LOWER MICHIGAN

CITY           SKY/WX    TMP DP  RH WIND       PRES   REMARKS
ADRIAN         SUNNY     65  47  52 S12G17    30.20S
ALMA           SUNNY     64  55  71 S6        30.20S
ANN ARBOR      SUNNY     65  55  70 E10       30.19F
BAD AXE        SUNNY     62  48  59 SE6       30.22S
CARO           SUNNY     63  51  66 SE7       30.20S
DETROIT CITY   SUNNY     66  50  56 SE13      30.21S
DETROIT        MOSUNNY   67  52  58 SE8       30.21S
FLINT          SUNNY     65  54  67 S14       30.20S
GROSSE ILE     SUNNY     67  51  55 SE8       30.20R
HILLSDALE      SUNNY     64  39  39 SE9       30.18S
HOWELL         SUNNY     64  55  73 SE12      30.20S

CITY           SKY/WX    TMP DP  RH WIND       PRES   REMARKS
JACKSON        SUNNY     65  52  62 SE14      30.18F
LAMBERTVILLE   SUNNY     67  48  50 SE8       30.20S
LANSING        SUNNY     65  52  62 S10       30.19S
LAPEER         FAIR      63  51  65 E10       30.21F
MASON          SUNNY     64  53  66 S10G16    30.19S
MONROE         SUNNY     67  53  60 SE10G22   30.19S
MT. CLEMENS    MOSUNNY   65  54  66 SE10      30.20R
PONTIAC        MOSUNNY   64  52  64 SE13      30.20S
PORT HOPE        N/A     64  49  57 S8        30.20F
PORT HURON     SUNNY     63  54  72 SE7       30.22S
TRI CITIES     SUNNY     63  51  65 S8        30.20F
MIDLAND        FAIR      63  50  63 SE6       30.19S
TROY           SUNNY     67  51  56 S6        30.22F
SAGINAW HB     SUNNY     63  50  63 S5        30.19S
$$
MIZ043>046-050>051-056>058-064>065-071>073-077>080-251600-
SOUTHWEST LOWER MICHIGAN

CITY           SKY/WX    TMP DP  RH WIND       PRES   REMARKS
BATTLE CREEK   CLOUDY    64  52  64 SE10      30.18S
BENTON HARBOR  MOSUNNY   67  53  61 SE13      30.11F
BIG RAPIDS     CLOUDY    62  54  74 SE8       30.17S
COLDWATER      PTSUNNY   65  44  47 SE9       30.17F
FREMONT        PTSUNNY   60  53  77 SE7       30.15S
HOLLAND        CLOUDY    63  55  75 SE13      30.14F
GRAND RAPIDS   CLOUDY    62  52  69 SE6       30.16F
IONIA          CLOUDY    64  52  65 SE10      30.17S
KALAMAZOO      CLOUDY    63  51  65 S8        30.17F
LUDINGTON      CLOUDY    64  55  71 SE12      30.11F
MARSHALL       MOSUNNY   65  49  55 SE9       30.17S
MUSKEGON       CLOUDY    63  54  72 SE13      30.13F
SOUTH HAVEN    MOSUNNY   66  55  67 SE8       30.13F
$$
MIZ016>042-251600-
NORTHERN LOWER MICHIGAN

CITY           SKY/WX    TMP DP  RH WIND       PRES   REMARKS
ALPENA         SUNNY     64  49  57 S13       30.20F
BEAVER ISLAND  CLOUDY    62  53  73 SE9G18    30.14F
BELLAIRE       PTSUNNY   63  47  57 S9        30.16F
CADILLAC       PTSUNNY   63  52  67 S10G18    30.15F
CHARLEVOIX     PTSUNNY   62  50  66 SE10      30.17F
FRANKFORT      CLOUDY    64  52  64 SE16      30.11F
GAYLORD        PTSUNNY   59  48  67 S10       30.18F
GRAYLING       PTSUNNY   61  49  64 SE7       30.19F
HARBOR SPRINGS CLOUDY    61  51  68 SE5       30.16F
HOUGHTON LAKE  CLOUDY    61  47  59 S6        30.20S
MANISTEE       SUNNY     63  53  70 VRB6      30.12F
OSCODA         SUNNY     64  47  53 S13       30.20S
PELLSTON       CLOUDY    59  49  69 SE7       30.17F
ROGERS CITY    SUNNY     63  50  63 S10       30.20S
TRAVERSE CITY  PTSUNNY   63  50  62 VRB7      30.13F
$$
MIZ007>008-015-251600-
EASTERN UPPER MICHIGAN

CITY           SKY/WX    TMP DP  RH WIND       PRES   REMARKS
KINROSS        CLOUDY    62  50  64 S14       30.18F
MACKINAC ISLAN CLOUDY    60  49  69 SE7G18    30.17F
NEWBERRY       CLOUDY    61  53  73 S10       30.13S
S. S. MARIE    MOSUNNY   63  50  62 SE13G20   30.17F
MUNISING         N/A     64  56  75 S16G25    30.05F
$$
MIZ004>006-011>014-085-251600-
CENTRAL UPPER MICHIGAN

CITY           SKY/WX    TMP DP  RH WIND       PRES   REMARKS
MANISTIQUE     CLOUDY    64  55  75 S12G17    30.11S
ESCANABA       CLOUDY    65  58  78 SE16      30.06F
MENOMINEE      LGT RAIN  65  61  87 S10       30.05F
SAWYER-GWINN   CLOUDY    61  55  82 S14G21    30.05F
$$
MIZ001>003-009>011-084-251600-
WESTERN UPPER MICHIGAN

CITY           SKY/WX    TMP DP  RH WIND       PRES   REMARKS
IRON MOUNTAIN  CLOUDY    61  56  83 S9        30.03F
HOUGHTON       PTSUNNY   63  56  78 SE14      29.95F
COPPER HARBOR    N/A     64  58  80 SW16G31   29.94F
IRONWOOD       CLOUDY    62  60  93 SE10G20   29.89F
$$

ABBREVIATIONS USED IN REMARKS
   TC - TEMPERATURE IN CELSIUS
  WCI - WIND CHILL INDEX
   HX - HEAT INDEX
  VSB - VISIBILITY




USA.gov is the U.S. government's official web portal to all federal, state and local government web resources and services.